[[{"header":{"parameterUnit":"m.s-1","parameterCategory":2,"la1":30.2991,"la2":30.254,"lo1":-89.0895,"lo2":-89.0444,"dy":0.0017,"dx":0.0017,"nx":28,"ny":28,"refTime":"2024-05-16T09:00:00:Z","depth":"0","parameterNumber":2,"parameterNumberName":"U-component_of_CURRENTS"},"data":[0,0,0,0,0,0,0,0,0,0,0,0,0,0,0,0,0,0,0,0,0,0,0,0,0,0,0,0,0,0,0,0,0,0,0,0,0,0,0,0,0,0,0,0,0,0,0,0,0,0,0,0,0,0,0,0,0,0,0.0738,0.0738,0,0.0734,0.0734,0.0734,0.0728,0.0728,0.0727,0.0727,0.0768,0.0769,0.077,0,0,0,0,0,0,0,0,0,0,0,0,0,0.0794,0.0793,0.0738,0.0738,0.0738,0.0734,0.0734,0.0734,0.0728,0.0728,0.0727,0.0727,0.0767,0.0769,0.077,0,0,0,0,0,0,0,0,0,0,0,0,0,0.0778,0.0792,0.0738,0.0734,0.0734,0.0734,0.0734,0.0734,0.0728,0.0728,0.0727,0.0727,0.0767,0.0769,0.077,0.0786,0,0,0.0776,0.0777,0,0,0,0,0,0,0,0,0.0779,0.0776,0.0735,0.0735,0.0734,0.0731,0.0769,0.0754,0.0728,0.0731,0.0727,0.0727,0.076,0.0762,0.0761,0.0788,0.079,0.0776,0.0777,0.0778,0.0779,0,0,0,0,0,0,0,0.078,0.0777,0.0737,0.0735,0.0734,0.0751,0.0748,0.0766,0.0747,0.073,0.073,0.0729,0.076,0.076,0.0762,0.079,0.0776,0.0778,0.0779,0.078,0.0842,0.0842,0,0,0,0,0,0,0.0777,0.0777,0.0737,0.0737,0.0756,0.075,0.0747,0.0732,0.0746,0.0748,0.0729,0.0728,0.0757,0.076,0.0764,0.0806,0.0778,0.078,0.0781,0.0841,0.0842,0.0842,0,0,0,0,0,0,0.0778,0.0773,0.0737,0.0758,0.0754,0.0749,0.0733,0.0732,0.0733,0.0745,0.0747,0.073,0.0757,0.0761,0.0787,0.0807,0.0781,0.0782,0.084,0.0841,0.0842,0.0876,0,0,0,0,0,0,0.0779,0.0773,0.0766,0.0757,0.0753,0.0741,0.0733,0.0733,0.0732,0.0731,0.0746,0.0749,0.0757,0.0784,0.0789,0.0809,0.0784,0.084,0.0841,0.0842,0.0874,0.0878,0.0881,0,0,0,0,0,0.0781,0.0778,0.0765,0.0761,0.0741,0.0741,0.0741,0.0738,0.0732,0.0736,0.0749,0.0749,0.0794,0.0787,0.0792,0.0813,0.0839,0.084,0.0842,0.0873,0.0877,0.0881,0,0,0,0,0,0,0.0797,0.0776,0.0763,0.0751,0.0746,0.074,0.0747,0.0739,0.075,0.0752,0.076,0.0765,0.079,0.0797,0.0788,0.0832,0.0815,0.0818,0.0837,0.0841,0.0845,0.087,0.0785,0,0,0,0,0,0.0796,0.0788,0.077,0.0762,0.0761,0.0752,0.0752,0.0746,0.0752,0.0756,0.0767,0.0782,0.08,0.0816,0.0827,0.0859,0.0914,0.0873,0.0877,0.088,0.0903,0.0986,0.1,0.0846,0.0846,0.0846,0,0,0.0794,0.0788,0.0779,0.0766,0.0763,0.0776,0.0752,0.0754,0.0773,0.0761,0.0795,0.0791,0.0807,0.0838,0.0851,0.0848,0.0959,0.0881,0.0884,0.0906,0.0989,0.1004,0.1018,0.0847,0.0847,0.0847,0,0,0.0814,0.0787,0.0797,0.0796,0.0793,0.0791,0.0792,0.0786,0.0793,0.0816,0.0813,0.0827,0.0852,0.0873,0.0886,0.0918,0.0966,0.0911,0.0962,0.1042,0.1056,0.1069,0.1192,0.1216,0.0922,0.0922,0.0922,0,0.0813,0.0827,0.0801,0.082,0.0833,0.0802,0.0829,0.083,0.0835,0.0862,0.0833,0.0881,0.0876,0.0938,0.0937,0.0929,0.0997,0.0945,0.105,0.1063,0.1076,0.1199,0.1224,0.0924,0.0923,0.0923,0.0923,0,0.0847,0.0861,0.0871,0.0885,0.0891,0.0907,0.0904,0.0918,0.0916,0.0925,0.0968,0.0957,0.1,0.0981,0.0967,0.105,0.1078,0.1039,0.1045,0.1095,0.122,0.1246,0.0926,0.0926,0.0925,0.0925,0,0,0.0854,0.0886,0.0894,0.0928,0.0931,0.0948,0.098,0.1019,0.1071,0.1051,0.1132,0.1113,0.1108,0.1122,0.1102,0.1145,0.128,0.1131,0.1134,0.1265,0.1507,0.1624,0.1665,0.1261,0.1265,0.1268,0.1571,0,0.0898,0.0957,0.0959,0.1026,0.1064,0.1057,0.1102,0.1128,0.1149,0.1214,0.1201,0.1259,0.1164,0.1196,0.1221,0.126,0.1346,0.1205,0.1429,0.1437,0.1545,0.1697,0.1599,0.1869,0.1597,0.1601,0.1604,0,0.0957,0.0992,0.1062,0.1134,0.1149,0.1181,0.1266,0.1301,0.1365,0.1388,0.1423,0.1422,0.1482,0.1391,0.1516,0.1433,0.1489,0.1509,0.1521,0.164,0.1604,0.1767,0.1927,0.1769,0.1645,0.1642,0.1639,0,0.1027,0.1081,0.1149,0.1165,0.1222,0.1268,0.1303,0.1364,0.1427,0.1519,0.1589,0.1628,0.1691,0.1727,0.1762,0.166,0.1927,0.1799,0.1974,0.1984,0.1953,0.1955,0.1996,0.1938,0.1938,0.1937,0.1936,0,0.1105,0.1165,0.1188,0.1232,0.1324,0.134,0.1451,0.1494,0.1584,0.1692,0.1693,0.1803,0.1776,0.19,0.1888,0.2063,0.2054,0.2053,0.209,0.1966,0.1965,0.1866,0.1791,0.1948,0.1946,0.1943,0.1941,0,0.1194,0.1207,0.1291,0.1346,0.1369,0.1439,0.1532,0.1613,0.1695,0.1845,0.1893,0.1993,0.2164,0.2193,0.2309,0.2283,0.2338,0.2466,0.2355,0.2373,0.2335,0.2268,0.2397,0.2327,0.2699,0.2704,0.2709,0,0.1254,0.1304,0.1368,0.141,0.1441,0.1528,0.1593,0.1668,0.176,0.1969,0.2062,0.2273,0.2406,0.266,0.2699,0.2821,0.2597,0.2785,0.2556,0.2401,0.235,0.2205,0.2119,0.2534,0.2537,0.2539,0.2541,0,0.136,0.1373,0.1417,0.1492,0.1562,0.1633,0.1734,0.1812,0.193,0.2073,0.2283,0.2411,0.2697,0.2777,0.2966,0.2986,0.2621,0.2836,0.2674,0.2271,0.2116,0.204,0.2291,0.2558,0.2557,0.2555,0.2554,0.2554,0.1423,0.1455,0.1492,0.156,0.1631,0.1701,0.1747,0.1866,0.2005,0.2181,0.2365,0.2529,0.2681,0.2934,0.2977,0.2918,0.2864,0.2712,0.2668,0.2554,0.2406,0.2758,0.3055,0.3056,0.3057,0.3058,0.3059,0,0.1479,0.149,0.1557,0.1606,0.1661,0.1702,0.1808,0.1836,0.1964,0.2178,0.235,0.2518,0.2621,0.2703,0.2773,0.2687,0.2501,0.2559,0.2226,0.2164,0.2476,0.2379,0.2543,0.2543,0.2544,0.2544,0.2544,0.2544,0.1503,0.1539,0.1546,0.16,0.1639,0.1666,0.1702,0.177,0.1883,0.2048,0.2162,0.2298,0.2416,0.2488,0.2414,0.2357,0.2091,0.2078,0.2033,0.2105,0.2108,0.2111,0.1996,0.2078,0.2077,0.1569,0.1565,0.1562]},{"header":{"parameterUnit":"m.s-1","parameterCategory":2,"la1":30.2991,"la2":30.254,"lo1":-89.0895,"lo2":-89.0444,"dy":0.0017,"dx":0.0017,"nx":28,"ny":28,"refTime":"2024-05-16T09:00:00:Z","depth":"0","parameterNumber":3,"parameterNumberName":"V-component_of_CURRENTS"},"data":[0,0,0,0,0,0,0,0,0,0,0,0,0,0,0,0,0,0,0,0,0,0,0,0,0,0,0,0,0,0,0,0,0,0,0,0,0,0,0,0,0,0,0,0,0,0,0,0,0,0,0,0,0,0,0,0,0,0,-0.1287,-0.1288,0,-0.1365,-0.1365,-0.1366,-0.1396,-0.1397,-0.1397,-0.1397,-0.1425,-0.1425,-0.1426,0,0,0,0,0,0,0,0,0,0,0,0,0,-0.1103,-0.1106,-0.1287,-0.1288,-0.129,-0.1365,-0.1365,-0.1366,-0.1396,-0.1397,-0.1397,-0.1397,-0.1425,-0.1425,-0.1426,0,0,0,0,0,0,0,0,0,0,0,0,0,-0.1177,-0.1107,-0.1287,-0.1318,-0.1322,-0.1364,-0.1365,-0.1366,-0.1396,-0.1397,-0.1397,-0.1397,-0.1424,-0.1425,-0.1426,-0.1424,0,0,-0.1428,-0.1429,0,0,0,0,0,0,0,0,-0.1173,-0.1184,-0.1312,-0.1316,-0.132,-0.1375,-0.1311,-0.1384,-0.1396,-0.1363,-0.1397,-0.1398,-0.1406,-0.1409,-0.1417,-0.1425,-0.1426,-0.1428,-0.1429,-0.1429,-0.1429,0,0,0,0,0,0,0,-0.1168,-0.118,-0.1313,-0.1313,-0.1318,-0.1306,-0.1317,-0.1324,-0.1377,-0.1366,-0.137,-0.1386,-0.1408,-0.1416,-0.1417,-0.1426,-0.1428,-0.1429,-0.1429,-0.143,-0.1427,-0.1426,0,0,0,0,0,0,-0.1172,-0.1176,-0.1311,-0.1316,-0.1251,-0.131,-0.1322,-0.1353,-0.1378,-0.1384,-0.1385,-0.1387,-0.1414,-0.1416,-0.1418,-0.1404,-0.1429,-0.143,-0.143,-0.1427,-0.1427,-0.1426,0,0,0,0,0,0,-0.1168,-0.1183,-0.1308,-0.125,-0.1266,-0.1314,-0.1348,-0.1355,-0.1361,-0.1394,-0.1398,-0.1385,-0.1415,-0.1417,-0.1422,-0.1405,-0.143,-0.1431,-0.1428,-0.1427,-0.1426,-0.1382,0,0,0,0,0,0,-0.1162,-0.1182,-0.1182,-0.1251,-0.1269,-0.1321,-0.1348,-0.1356,-0.1373,-0.1376,-0.1396,-0.1399,-0.1415,-0.1421,-0.1423,-0.1407,-0.1432,-0.1429,-0.1428,-0.1427,-0.1384,-0.138,-0.1376,0,0,0,0,0,-0.1155,-0.1156,-0.1182,-0.1197,-0.1277,-0.1321,-0.1328,-0.1359,-0.1373,-0.1367,-0.1388,-0.1398,-0.1416,-0.1421,-0.1424,-0.1407,-0.1429,-0.1428,-0.1427,-0.1386,-0.1381,-0.1376,0,0,0,0,0,0,-0.107,-0.1163,-0.1191,-0.1219,-0.1263,-0.1328,-0.1323,-0.1354,-0.1366,-0.1365,-0.1394,-0.1398,-0.1396,-0.1408,-0.1413,-0.1404,-0.1423,-0.1422,-0.1391,-0.1386,-0.1382,-0.1349,-0.1432,0,0,0,0,0,-0.1056,-0.1086,-0.1166,-0.1185,-0.1206,-0.1263,-0.1278,-0.1309,-0.1343,-0.1349,-0.1367,-0.1382,-0.1393,-0.1395,-0.1405,-0.1399,-0.1395,-0.1389,-0.1385,-0.1382,-0.1357,-0.1358,-0.1352,-0.1422,-0.1422,-0.1422,0,0,-0.1031,-0.1083,-0.11,-0.1168,-0.1203,-0.122,-0.1271,-0.1297,-0.13,-0.1348,-0.1339,-0.1367,-0.1389,-0.1385,-0.1384,-0.1393,-0.1358,-0.138,-0.1377,-0.1353,-0.1356,-0.1349,-0.1343,-0.1421,-0.1421,-0.1422,0,0,-0.0992,-0.1041,-0.1049,-0.1084,-0.1141,-0.1176,-0.1183,-0.1245,-0.1256,-0.1267,-0.1301,-0.132,-0.1331,-0.1349,-0.1359,-0.1336,-0.1338,-0.1337,-0.1287,-0.129,-0.1284,-0.1278,-0.1254,-0.1246,-0.1334,-0.1334,-0.1334,0,-0.095,-0.0982,-0.1051,-0.1064,-0.1077,-0.1154,-0.115,-0.1177,-0.1227,-0.1225,-0.1253,-0.128,-0.1312,-0.1308,-0.1305,-0.1326,-0.1314,-0.1306,-0.1283,-0.1278,-0.1273,-0.1249,-0.1242,-0.1331,-0.1332,-0.1332,-0.1332,0,-0.0927,-0.094,-0.0943,-0.0988,-0.1006,-0.1017,-0.1075,-0.1083,-0.1112,-0.1141,-0.1146,-0.12,-0.1213,-0.1235,-0.1264,-0.1245,-0.1242,-0.128,-0.1293,-0.1263,-0.124,-0.1233,-0.1328,-0.1329,-0.133,-0.133,0,0,-0.0848,-0.0915,-0.0907,-0.0904,-0.0965,-0.0973,-0.0978,-0.0995,-0.0974,-0.1034,-0.1007,-0.1067,-0.1103,-0.1115,-0.1165,-0.1176,-0.1149,-0.1204,-0.1206,-0.1173,-0.1122,-0.1052,-0.1038,-0.1181,-0.118,-0.1179,-0.1115,0,-0.0796,-0.0792,-0.084,-0.081,-0.0808,-0.0867,-0.0852,-0.0878,-0.0903,-0.0895,-0.0967,-0.0963,-0.1055,-0.1056,-0.1088,-0.1133,-0.1129,-0.1161,-0.116,-0.1158,-0.1097,-0.1028,-0.094,-0.0869,-0.1108,-0.1107,-0.1106,0,-0.0733,-0.0744,-0.0712,-0.0711,-0.0711,-0.0699,-0.0678,-0.068,-0.0705,-0.0723,-0.076,-0.0815,-0.0853,-0.093,-0.0989,-0.1001,-0.1043,-0.1085,-0.1084,-0.1024,-0.1075,-0.0941,-0.0848,-0.0984,-0.1096,-0.1097,-0.1098,0,-0.0617,-0.0631,-0.0594,-0.0602,-0.0626,-0.06,-0.0599,-0.0614,-0.0584,-0.0606,-0.0581,-0.0664,-0.0675,-0.0761,-0.087,-0.0918,-0.0911,-0.0997,-0.0967,-0.0963,-0.0887,-0.0877,-0.0916,-0.1005,-0.1005,-0.1005,-0.1005,0,-0.0525,-0.0489,-0.0535,-0.0512,-0.044,-0.0493,-0.041,-0.0425,-0.0417,-0.0347,-0.0475,-0.0431,-0.063,-0.067,-0.0791,-0.0833,-0.0851,-0.0918,-0.093,-0.0868,-0.0857,-0.0973,-0.1062,-0.1003,-0.1003,-0.1004,-0.1004,0,-0.0393,-0.0428,-0.0382,-0.0393,-0.0382,-0.0323,-0.0284,-0.0225,-0.0242,-0.0153,-0.0148,-0.0233,-0.0279,-0.0454,-0.0573,-0.0693,-0.08,-0.0775,-0.0672,-0.0672,-0.0787,-0.0876,-0.0869,-0.0912,-0.0731,-0.0729,-0.0727,0,-0.0329,-0.0298,-0.0276,-0.0228,-0.0224,-0.0162,-0.0105,-0.012,-0.0057,-0.0009,0.0058,0.0022,0.0042,-0.0114,-0.0327,-0.0485,-0.0662,-0.0527,-0.0615,-0.0737,-0.0848,-0.0921,-0.0967,-0.0499,-0.0496,-0.0493,-0.049,0,-0.0206,-0.0197,-0.0161,-0.0073,-0.0003,0.0069,0.014,0.0214,0.0228,0.0307,0.0415,0.044,0.0299,0.0175,-0.0067,-0.0201,-0.0579,-0.0469,-0.063,-0.067,-0.0716,-0.0782,-0.0598,-0.0464,-0.0467,-0.0469,-0.047,-0.0471,-0.0101,-0.0048,0.0001,0.0095,0.0179,0.0292,0.0381,0.0464,0.0596,0.0738,0.0729,0.083,0.0585,0.0277,0.007,-0.0293,-0.0363,-0.0426,-0.0521,-0.0583,-0.0626,-0.0356,-0.0225,-0.0226,-0.0227,-0.0228,-0.0229,0,0.0023,0.0067,0.0162,0.0272,0.0391,0.0397,0.0542,0.0639,0.0822,0.098,0.1101,0.109,0.0818,0.0441,-0.005,-0.0317,-0.0459,-0.0489,-0.0609,-0.0655,-0.0431,-0.0425,-0.0288,-0.0288,-0.0288,-0.0287,-0.0287,-0.0287,0.0092,0.0194,0.023,0.0432,0.0519,0.0677,0.077,0.0919,0.1052,0.1282,0.1388,0.1437,0.1129,0.0257,-0.0368,-0.0514,-0.0753,-0.0733,-0.091,-0.081,-0.0814,-0.0819,-0.0836,-0.0788,-0.0788,-0.1078,-0.1081,-0.1084]}],[{"header":{"parameterUnit":"m.s-1","parameterCategory":2,"la1":30.2991,"la2":30.254,"lo1":-89.0895,"lo2":-89.0444,"dy":0.0017,"dx":0.0017,"nx":28,"ny":28,"refTime":"2024-05-16T09:00:00:Z","depth":"2","parameterNumber":2,"parameterNumberName":"U-component_of_CURRENTS"},"data":[0,0,0,0,0,0,0,0,0,0,0,0,0,0,0,0,0,0,0,0,0,0,0,0,0,0,0,0,0,0,0,0,0,0,0,0,0,0,0,0,0,0,0,0,0,0,0,0,0,0,0,0,0,0,0,0,0,0,0.2659,0.2659,0,0.2662,0.2661,0.2661,0.2663,0.2664,0.2664,0.2665,0.2618,0.2617,0.2615,0,0,0,0,0,0,0,0,0,0,0,0,0,0.2581,0.2582,0.2659,0.2659,0.266,0.2662,0.2661,0.2661,0.2663,0.2664,0.2664,0.2665,0.2619,0.2617,0.2615,0,0,0,0,0,0,0,0,0,0,0,0,0,0.2596,0.2583,0.2659,0.2666,0.2668,0.2662,0.2661,0.2661,0.2663,0.2664,0.2665,0.2666,0.262,0.2617,0.2614,0.2578,0,0,0.2606,0.2605,0,0,0,0,0,0,0,0,0.2596,0.2598,0.2665,0.2666,0.2667,0.2669,0.2617,0.2633,0.2662,0.2657,0.2665,0.2666,0.2634,0.263,0.262,0.2576,0.2574,0.2606,0.2604,0.2603,0.2602,0,0,0,0,0,0,0,0.2595,0.2598,0.2653,0.2665,0.2667,0.2645,0.2648,0.262,0.2634,0.2658,0.266,0.2671,0.2634,0.2623,0.2619,0.2574,0.2606,0.2603,0.2602,0.2601,0.2561,0.2561,0,0,0,0,0,0,0.2611,0.2597,0.2653,0.2654,0.2641,0.2646,0.2649,0.2662,0.2636,0.2635,0.267,0.2671,0.2627,0.2622,0.2617,0.2574,0.2603,0.26,0.2599,0.256,0.2561,0.2562,0,0,0,0,0,0,0.2609,0.2616,0.2653,0.2631,0.2635,0.2648,0.2661,0.2662,0.2659,0.2647,0.2644,0.2669,0.2627,0.2621,0.2604,0.2572,0.2599,0.2597,0.256,0.256,0.2561,0.2487,0,0,0,0,0,0,0.2607,0.2615,0.2607,0.2632,0.2637,0.264,0.2661,0.2661,0.2667,0.2668,0.2644,0.2641,0.2628,0.2608,0.2601,0.2569,0.2594,0.2559,0.256,0.2561,0.2488,0.2485,0.2482,0,0,0,0,0,0.2604,0.2587,0.2606,0.2612,0.2633,0.264,0.2638,0.2646,0.2666,0.265,0.2652,0.2642,0.2611,0.2605,0.2597,0.2564,0.2558,0.256,0.2561,0.249,0.2486,0.2482,0,0,0,0,0,0,0.2536,0.2588,0.2609,0.2606,0.2623,0.2643,0.262,0.2648,0.2636,0.263,0.2636,0.2631,0.2611,0.2609,0.2604,0.2565,0.2587,0.2587,0.2536,0.2532,0.2529,0.2554,0.2592,0,0,0,0,0,0.2524,0.2527,0.2576,0.2566,0.2575,0.2602,0.2602,0.2614,0.2621,0.2617,0.2604,0.2603,0.2607,0.2588,0.2583,0.2543,0.2588,0.2527,0.2523,0.252,0.2541,0.2565,0.2565,0.2566,0.2566,0.2566,0,0,0.2488,0.2521,0.2517,0.2551,0.2559,0.257,0.2601,0.2593,0.2601,0.2611,0.2585,0.2586,0.2602,0.2569,0.2559,0.2558,0.255,0.2522,0.2518,0.2541,0.2567,0.2566,0.2566,0.2567,0.2567,0.2567,0,0,0.2442,0.2454,0.2457,0.2475,0.2502,0.2519,0.2526,0.2543,0.2542,0.2524,0.2554,0.2556,0.2516,0.2538,0.2547,0.2529,0.2542,0.251,0.2487,0.2509,0.2509,0.2509,0.2584,0.2592,0.2492,0.2492,0.2492,0,0.2403,0.2427,0.245,0.2469,0.2482,0.2506,0.2517,0.2515,0.252,0.2533,0.2504,0.2523,0.2514,0.2546,0.2525,0.2519,0.2544,0.2488,0.2502,0.2503,0.2504,0.2582,0.2591,0.2489,0.2489,0.2489,0.249,0,0.2386,0.2398,0.2392,0.2436,0.2442,0.244,0.2471,0.2466,0.2463,0.2477,0.2484,0.2475,0.2497,0.2482,0.2481,0.2496,0.2517,0.2501,0.2503,0.2499,0.2582,0.2593,0.2484,0.2485,0.2486,0.2487,0,0,0.232,0.2377,0.2373,0.2401,0.2429,0.2439,0.2445,0.2478,0.2497,0.2469,0.249,0.2485,0.2484,0.2499,0.2501,0.25,0.2519,0.2479,0.2482,0.2541,0.2593,0.2519,0.2525,0.2473,0.2474,0.2475,0.2653,0,0.2305,0.2348,0.2371,0.2386,0.2412,0.2438,0.245,0.2475,0.2468,0.2474,0.2495,0.2494,0.249,0.2474,0.2479,0.2519,0.254,0.2475,0.2602,0.2608,0.2528,0.2531,0.2284,0.2411,0.2664,0.2666,0.2668,0,0.2289,0.2328,0.2355,0.2407,0.2417,0.241,0.2446,0.2459,0.2489,0.2486,0.2501,0.2503,0.2543,0.2494,0.2595,0.2541,0.2565,0.2587,0.2593,0.256,0.2552,0.2454,0.2422,0.2687,0.2685,0.2684,0.2682,0,0.2267,0.231,0.2336,0.2351,0.2408,0.2407,0.2418,0.245,0.2481,0.2479,0.2496,0.2535,0.2569,0.259,0.2657,0.2603,0.2761,0.2702,0.2687,0.2686,0.2524,0.2505,0.2762,0.2762,0.2762,0.2761,0.2761,0,0.2266,0.2279,0.2316,0.2336,0.2348,0.2379,0.2381,0.241,0.2446,0.2495,0.249,0.255,0.2579,0.2672,0.2688,0.2753,0.2809,0.2704,0.2714,0.2494,0.2471,0.2743,0.2739,0.2768,0.2766,0.2765,0.2764,0,0.225,0.2278,0.2307,0.2345,0.234,0.2341,0.2366,0.239,0.2424,0.2484,0.249,0.2595,0.2695,0.2765,0.2847,0.2821,0.2865,0.2876,0.2646,0.2621,0.2768,0.2758,0.2846,0.2845,0.2844,0.2843,0.2842,0,0.2266,0.2279,0.23,0.2301,0.2301,0.23,0.2315,0.236,0.2402,0.2532,0.2584,0.2692,0.2728,0.2855,0.2818,0.2842,0.2924,0.2649,0.2474,0.277,0.2772,0.2764,0.2756,0.2263,0.2257,0.2253,0.2249,0,0.2298,0.2283,0.2309,0.2301,0.2294,0.2309,0.2328,0.2367,0.2455,0.2483,0.2597,0.2614,0.2708,0.259,0.2613,0.2597,0.2601,0.2554,0.2935,0.2258,0.2227,0.2226,0.2236,0.2209,0.2213,0.2216,0.2218,0.2219,0.2313,0.2315,0.2326,0.2304,0.2302,0.2311,0.2286,0.2302,0.2329,0.2309,0.2475,0.2381,0.2407,0.2252,0.2234,0.2231,0.2382,0.2264,0.2275,0.2292,0.2171,0.2135,0.2083,0.2086,0.2089,0.2091,0.2093,0,0.2349,0.2337,0.233,0.2305,0.2263,0.228,0.2298,0.2198,0.2128,0.2123,0.2073,0.1884,0.1775,0.1861,0.1755,0.1752,0.1707,0.1719,0.1631,0.1672,0.1709,0.1554,0.1306,0.1303,0.1301,0.1299,0,0,0.2378,0.2367,0.234,0.2262,0.2226,0.2131,0.2108,0.1925,0.1842,0.1655,0.1562,0.1569,0.1721,0.1444,0.1436,0.1358,0.1497,0.1308,0.1936,0.1868,0.1901,0.2019,0.1827,0,0,0,0,0]},{"header":{"parameterUnit":"m.s-1","parameterCategory":2,"la1":30.2991,"la2":30.254,"lo1":-89.0895,"lo2":-89.0444,"dy":0.0017,"dx":0.0017,"nx":28,"ny":28,"refTime":"2024-05-16T09:00:00:Z","depth":"2","parameterNumber":3,"parameterNumberName":"V-component_of_CURRENTS"},"data":[0,0,0,0,0,0,0,0,0,0,0,0,0,0,0,0,0,0,0,0,0,0,0,0,0,0,0,0,0,0,0,0,0,0,0,0,0,0,0,0,0,0,0,0,0,0,0,0,0,0,0,0,0,0,0,0,0,0,0.0401,0.04,0,0.0349,0.0348,0.0348,0.0278,0.0277,0.0276,0.0275,0.0186,0.0184,0.0183,0,0,0,0,0,0,0,0,0,0,0,0,0,0.0397,0.0397,0.0401,0.04,0.04,0.0349,0.0348,0.0347,0.0278,0.0277,0.0276,0.0275,0.0186,0.0184,0.0183,0,0,0,0,0,0,0,0,0,0,0,0,0,0.0376,0.0398,0.0401,0.036,0.0356,0.0349,0.0348,0.0347,0.0278,0.0277,0.0275,0.0274,0.0187,0.0184,0.0182,0.02,0,0,0.0176,0.0175,0,0,0,0,0,0,0,0,0.0377,0.0376,0.0367,0.0363,0.0358,0.032,0.0314,0.0297,0.0279,0.0306,0.0275,0.0273,0.0229,0.0223,0.0215,0.0196,0.0192,0.0176,0.0174,0.0173,0.0173,0,0,0,0,0,0,0,0.0379,0.0378,0.0379,0.0366,0.0361,0.033,0.0325,0.031,0.0275,0.0304,0.0299,0.0296,0.0226,0.0218,0.0213,0.0191,0.0176,0.0174,0.0172,0.0172,0.0109,0.0109,0,0,0,0,0,0,0.0392,0.038,0.038,0.0377,0.0366,0.0332,0.0326,0.0332,0.0276,0.0267,0.0298,0.0293,0.0222,0.0215,0.0209,0.0175,0.0173,0.0171,0.017,0.011,0.0109,0.0109,0,0,0,0,0,0,0.0393,0.0393,0.0382,0.0377,0.0374,0.0334,0.0341,0.0332,0.0312,0.0272,0.0261,0.0285,0.0221,0.0212,0.0177,0.0172,0.017,0.0168,0.011,0.0109,0.0109,0.0139,0,0,0,0,0,0,0.0393,0.0394,0.04,0.0379,0.0375,0.0377,0.0342,0.0332,0.0314,0.0308,0.0258,0.0249,0.0219,0.018,0.0174,0.0169,0.0167,0.011,0.011,0.0109,0.0138,0.0139,0.014,0,0,0,0,0,0.0393,0.0402,0.0401,0.04,0.0386,0.0377,0.0372,0.0337,0.0316,0.0312,0.0267,0.025,0.0171,0.0178,0.0172,0.0166,0.0111,0.011,0.0109,0.0138,0.0139,0.014,0,0,0,0,0,0,0.0392,0.0396,0.0393,0.0401,0.0392,0.0366,0.0358,0.034,0.0304,0.0289,0.0248,0.0236,0.0203,0.0182,0.0191,0.0145,0.0138,0.0135,0.0162,0.0162,0.0163,0.0168,0.0165,0,0,0,0,0,0.0402,0.0412,0.0409,0.0411,0.0412,0.0388,0.0379,0.0358,0.0327,0.0309,0.0272,0.0231,0.0199,0.0178,0.0149,0.013,0.0105,0.012,0.0121,0.0122,0.0121,0.0064,0.006,0.0106,0.0106,0.0106,0,0,0.0397,0.0403,0.0404,0.0412,0.0401,0.0399,0.0377,0.0364,0.0351,0.0307,0.0269,0.0237,0.0195,0.0164,0.0148,0.0143,0.0101,0.0121,0.0122,0.012,0.0063,0.0058,0.0054,0.0105,0.0105,0.0106,0,0,0.0393,0.0406,0.0412,0.0414,0.041,0.0401,0.04,0.0377,0.0356,0.0326,0.0287,0.0253,0.0202,0.0173,0.0152,0.0145,0.011,0.0131,0.0137,0.0082,0.0078,0.0073,0.006,0.0054,0.0128,0.0128,0.0128,0,0.0386,0.0403,0.0409,0.0417,0.0419,0.0404,0.0408,0.039,0.0351,0.0344,0.0313,0.0242,0.0207,0.0177,0.016,0.0149,0.0116,0.0138,0.0083,0.0079,0.0074,0.006,0.0053,0.013,0.013,0.0129,0.0129,0,0.039,0.0402,0.0405,0.0417,0.042,0.0421,0.0411,0.0403,0.0377,0.0356,0.0319,0.0265,0.0221,0.0206,0.0172,0.0129,0.0118,0.0094,0.0083,0.0071,0.0058,0.005,0.0132,0.0131,0.0131,0.013,0,0,0.0378,0.0405,0.0405,0.0423,0.0425,0.0433,0.0424,0.0424,0.0418,0.0372,0.0355,0.0292,0.0259,0.0232,0.0193,0.0141,0.0083,0.0094,0.009,0.0086,-0.0023,0.001,0.0005,0.0034,0.0032,0.0031,-0.001,0,0.0379,0.0408,0.0414,0.0433,0.0452,0.0452,0.0456,0.0451,0.042,0.0398,0.0353,0.0307,0.027,0.0232,0.018,0.0107,0.0059,0.0098,-0.0016,-0.0018,0.0016,-0.0004,-0.0007,-0.0041,-0.0017,-0.0019,-0.002,0,0.0383,0.041,0.0435,0.0475,0.0484,0.0482,0.05,0.0499,0.0473,0.0449,0.0399,0.0341,0.0277,0.0226,0.0112,0.013,0.0049,-0.0006,-0.001,0.0003,-0.0,-0.0032,-0.0056,-0.0033,-0.0031,-0.0031,-0.003,0,0.0397,0.0424,0.0453,0.0463,0.0499,0.0505,0.0517,0.0508,0.053,0.0458,0.0452,0.036,0.0321,0.0199,0.0093,0.0075,-0.0028,-0.0063,-0.0097,-0.0094,-0.0125,-0.0122,-0.0165,-0.0165,-0.0165,-0.0165,-0.0165,0,0.0412,0.0432,0.0458,0.0479,0.0522,0.0528,0.0552,0.0552,0.0552,0.0598,0.0471,0.0483,0.0299,0.0225,0.0105,0.0007,-0.0018,-0.0096,-0.0112,-0.0111,-0.0106,-0.0127,-0.0123,-0.0167,-0.0166,-0.0166,-0.0166,0,0.0423,0.0439,0.0482,0.052,0.0531,0.056,0.0604,0.0634,0.0614,0.066,0.0638,0.0568,0.0478,0.0323,0.0148,0.005,-0.0073,-0.0107,-0.0067,-0.0077,-0.0106,-0.0099,-0.0164,-0.0163,-0.0163,-0.0162,-0.0162,0,0.0433,0.0456,0.0515,0.055,0.0561,0.0598,0.0646,0.0663,0.0711,0.0747,0.0795,0.0701,0.0677,0.0455,0.0226,0.0023,-0.0007,-0.0104,-0.0147,-0.0102,-0.0111,-0.0105,-0.0099,-0.017,-0.017,-0.017,-0.017,0,0.0459,0.0476,0.0519,0.0593,0.064,0.0711,0.0772,0.0833,0.0889,0.0937,0.1024,0.0994,0.0777,0.0556,0.0252,0.0117,-0.0078,-0.0104,-0.0096,-0.0156,-0.0108,-0.0116,-0.0111,-0.0168,-0.0168,-0.0168,-0.0168,-0.0168,0.0475,0.0511,0.057,0.0641,0.0712,0.082,0.0891,0.0966,0.108,0.1134,0.1158,0.1089,0.0848,0.0431,0.0219,-0.0031,-0.0028,-0.0141,-0.0142,-0.0144,-0.0123,-0.0076,-0.0124,-0.0124,-0.0124,-0.0124,-0.0123,0,0.0503,0.0547,0.0617,0.0714,0.0811,0.0839,0.0988,0.1046,0.1179,0.1188,0.121,0.0976,0.0722,0.0465,0.0091,-0.0113,-0.0156,-0.0166,-0.0189,-0.0189,-0.0189,-0.0173,-0.0186,-0.0186,-0.0187,-0.0188,0,0,0.052,0.0586,0.0629,0.078,0.0856,0.0994,0.1091,0.1149,0.118,0.118,0.1115,0.0984,0.0737,0.0453,0.019,-0.0001,-0.0052,-0.0039,0.0029,0.0032,0.0034,-0.0158,-0.0129,0,0,0,0,0]}],[{"header":{"parameterUnit":"m.s-1","parameterCategory":2,"la1":30.2991,"la2":30.254,"lo1":-89.0895,"lo2":-89.0444,"dy":0.0017,"dx":0.0017,"nx":28,"ny":28,"refTime":"2024-05-16T09:00:00:Z","depth":"4","parameterNumber":2,"parameterNumberName":"U-component_of_CURRENTS"},"data":[0,0,0,0,0,0,0,0,0,0,0,0,0,0,0,0,0,0,0,0,0,0,0,0,0,0,0,0,0,0,0,0,0,0,0,0,0,0,0,0,0,0,0,0,0,0,0,0,0,0,0,0,0,0,0,0,0,0,0.0847,0.0848,0,0.0927,0.0928,0.0928,0.0978,0.0979,0.0979,0.0979,0.1055,0.1056,0.1058,0,0,0,0,0,0,0,0,0,0,0,0,0,0.0782,0.0783,0.0847,0.0848,0.0849,0.0927,0.0928,0.0929,0.0978,0.0979,0.0979,0.098,0.1054,0.1056,0.1058,0,0,0,0,0,0,0,0,0,0,0,0,0,0.0829,0.0783,0.0846,0.0885,0.0889,0.0927,0.0928,0.0929,0.0978,0.0979,0.0979,0.098,0.1053,0.1056,0.1058,0.1059,0,0,0.1065,0.1066,0,0,0,0,0,0,0,0,0.0826,0.0831,0.0878,0.0882,0.0887,0.0945,0.0933,0.0973,0.0978,0.0942,0.0979,0.098,0.1018,0.1024,0.1034,0.1063,0.1066,0.1066,0.1067,0.1068,0.1069,0,0,0,0,0,0,0,0.0823,0.0828,0.0876,0.0879,0.0885,0.0914,0.092,0.0941,0.0974,0.0945,0.0949,0.0961,0.1021,0.1032,0.1036,0.1067,0.1065,0.1068,0.1069,0.107,0.117,0.1171,0,0,0,0,0,0,0.0814,0.0825,0.0874,0.0879,0.086,0.0914,0.0922,0.0924,0.0974,0.0983,0.0961,0.0964,0.1028,0.1034,0.1039,0.1108,0.1068,0.107,0.1072,0.1169,0.117,0.1171,0,0,0,0,0,0,0.0812,0.0817,0.0871,0.0856,0.0865,0.0914,0.0917,0.0925,0.096,0.0986,0.0995,0.0989,0.1028,0.1036,0.1081,0.1108,0.1071,0.1073,0.1167,0.1169,0.1171,0.1203,0,0,0,0,0,0,0.081,0.0816,0.0832,0.0855,0.0866,0.0905,0.0917,0.0926,0.0966,0.097,0.1013,0.1019,0.1029,0.1077,0.1083,0.1111,0.1075,0.1166,0.1168,0.117,0.12,0.1205,0.121,0,0,0,0,0,0.0807,0.0819,0.0832,0.084,0.088,0.0906,0.0915,0.0951,0.0966,0.0983,0.1017,0.1019,0.1096,0.108,0.1087,0.1116,0.1164,0.1167,0.117,0.1198,0.1204,0.121,0,0,0,0,0,0,0.0791,0.0826,0.0841,0.0861,0.0889,0.0916,0.0938,0.0962,0.1001,0.1012,0.1034,0.1043,0.1083,0.1099,0.1081,0.1152,0.1131,0.1135,0.115,0.1156,0.1161,0.1178,0.1077,0,0,0,0,0,0.0796,0.0826,0.0849,0.0871,0.0879,0.0912,0.0934,0.0958,0.0989,0.1008,0.104,0.1073,0.1095,0.1127,0.114,0.119,0.1195,0.1214,0.1218,0.1223,0.1241,0.127,0.1279,0.1181,0.1181,0.1181,0,0,0.0802,0.0823,0.0844,0.0874,0.0893,0.0915,0.0927,0.096,0.0991,0.1009,0.1065,0.1082,0.1106,0.1151,0.1173,0.1176,0.125,0.1226,0.1229,0.1246,0.1274,0.1284,0.1292,0.1182,0.1182,0.1182,0,0,0.0812,0.0835,0.0857,0.088,0.0917,0.0935,0.0948,0.0985,0.1012,0.1062,0.1076,0.112,0.1165,0.1195,0.1212,0.1257,0.1258,0.1264,0.1326,0.1353,0.1362,0.1369,0.1372,0.138,0.1287,0.1288,0.1288,0,0.0812,0.0845,0.0868,0.0887,0.0913,0.0943,0.0966,0.0994,0.1051,0.1075,0.1085,0.1172,0.1185,0.1252,0.1271,0.1269,0.128,0.1299,0.136,0.1367,0.1375,0.1376,0.1384,0.1289,0.1289,0.1289,0.1289,0,0.0839,0.0868,0.0877,0.0916,0.0943,0.0971,0.1002,0.1042,0.1079,0.1108,0.1179,0.122,0.1282,0.129,0.1298,0.1367,0.1355,0.1343,0.1342,0.1386,0.1385,0.1392,0.1292,0.1291,0.1291,0.129,0,0,0.0822,0.0884,0.0889,0.0913,0.0965,0.0983,0.1033,0.1079,0.1122,0.1184,0.1248,0.1304,0.1344,0.1368,0.1398,0.1439,0.1485,0.143,0.1431,0.143,0.1539,0.1439,0.1438,0.149,0.1492,0.1493,0.1511,0,0.0834,0.0871,0.091,0.0957,0.0972,0.1022,0.1061,0.1111,0.1166,0.1232,0.1291,0.1353,0.1369,0.1419,0.1465,0.1468,0.151,0.148,0.1501,0.1501,0.1405,0.1446,0.1499,0.1517,0.1518,0.152,0.152,0,0.0842,0.0871,0.0911,0.0971,0.0982,0.1025,0.1104,0.1154,0.1237,0.1281,0.1376,0.1413,0.1498,0.15,0.1569,0.1552,0.1563,0.1566,0.1566,0.1473,0.1417,0.1469,0.1534,0.1533,0.1532,0.1531,0.153,0,0.0807,0.0869,0.0904,0.0928,0.0997,0.1039,0.1094,0.1174,0.122,0.1339,0.1386,0.148,0.1551,0.1579,0.1603,0.1591,0.1657,0.1626,0.1551,0.1543,0.1612,0.1604,0.1685,0.1685,0.1685,0.1685,0.1685,0,0.0795,0.0824,0.0899,0.0918,0.0973,0.1034,0.1108,0.1179,0.1277,0.1329,0.143,0.1487,0.1581,0.1625,0.1622,0.161,0.1674,0.1572,0.155,0.1621,0.1615,0.1616,0.1608,0.1685,0.1685,0.1685,0.1685,0,0.075,0.0795,0.0837,0.0921,0.0957,0.1002,0.1115,0.1163,0.1269,0.1354,0.1394,0.1511,0.1561,0.1625,0.1671,0.1632,0.162,0.1607,0.168,0.166,0.1478,0.1471,0.15,0.1497,0.1495,0.1492,0.1491,0,0.0729,0.0744,0.0834,0.0866,0.0916,0.0996,0.1044,0.1155,0.1211,0.134,0.1369,0.1472,0.1533,0.152,0.1584,0.1584,0.1579,0.1564,0.1526,0.1488,0.1464,0.1462,0.1459,0.1486,0.1486,0.1485,0.1484,0,0.0685,0.0721,0.0764,0.0835,0.0894,0.094,0.1031,0.1055,0.1175,0.1272,0.1314,0.1346,0.1415,0.145,0.1493,0.1481,0.1556,0.1535,0.154,0.1504,0.1471,0.1449,0.145,0.1475,0.1476,0.1477,0.1478,0,0.0663,0.0674,0.0735,0.0797,0.0856,0.0878,0.0926,0.0987,0.1043,0.1191,0.119,0.1289,0.1391,0.1396,0.1406,0.1416,0.1388,0.1339,0.1354,0.1365,0.1315,0.1251,0.1181,0,0,0,0,0,0.0636,0.0643,0.0692,0.0739,0.0794,0.0829,0.0912,0.0959,0.1064,0.1067,0.113,0.1175,0.1214,0.1258,0.1242,0.1341,0.1393,0.1315,0.1343,0.1423,0.1434,0.1389,0,0,0,0,0,0,0.0618,0.0649,0.067,0.0682,0.0705,0.0746,0.0791,0.086,0.0871,0.0984,0.1014,0.1099,0.1158,0.1213,0.1217,0.1233,0.1226,0.1379,0.1376,0.1417,0.1427,0.1436,0.1393,0,0,0,0,0]},{"header":{"parameterUnit":"m.s-1","parameterCategory":2,"la1":30.2991,"la2":30.254,"lo1":-89.0895,"lo2":-89.0444,"dy":0.0017,"dx":0.0017,"nx":28,"ny":28,"refTime":"2024-05-16T09:00:00:Z","depth":"4","parameterNumber":3,"parameterNumberName":"V-component_of_CURRENTS"},"data":[0,0,0,0,0,0,0,0,0,0,0,0,0,0,0,0,0,0,0,0,0,0,0,0,0,0,0,0,0,0,0,0,0,0,0,0,0,0,0,0,0,0,0,0,0,0,0,0,0,0,0,0,0,0,0,0,0,0,0.0302,0.0302,0,0.0296,0.0295,0.0295,0.0292,0.0292,0.0292,0.0292,0.0292,0.0292,0.0292,0,0,0,0,0,0,0,0,0,0,0,0,0,0.029,0.029,0.0302,0.0302,0.0302,0.0296,0.0295,0.0295,0.0292,0.0292,0.0292,0.0292,0.0292,0.0292,0.0292,0,0,0,0,0,0,0,0,0,0,0,0,0,0.029,0.029,0.0302,0.03,0.03,0.0296,0.0295,0.0295,0.0292,0.0292,0.0292,0.0292,0.0292,0.0292,0.0292,0.029,0,0,0.0292,0.0292,0,0,0,0,0,0,0,0,0.029,0.029,0.03,0.03,0.03,0.0295,0.0291,0.0294,0.0292,0.0294,0.0292,0.0292,0.0294,0.0294,0.0292,0.029,0.029,0.0292,0.0292,0.0292,0.0292,0,0,0,0,0,0,0,0.029,0.0291,0.0299,0.03,0.03,0.0292,0.0292,0.0291,0.0294,0.0294,0.0294,0.0294,0.0294,0.0292,0.0292,0.029,0.0292,0.0292,0.0292,0.0292,0.0299,0.0299,0,0,0,0,0,0,0.0293,0.0291,0.0299,0.0299,0.0296,0.0292,0.0292,0.0296,0.0293,0.0293,0.0294,0.0294,0.0292,0.0292,0.0292,0.0309,0.0292,0.0292,0.0292,0.0298,0.0299,0.0299,0,0,0,0,0,0,0.0293,0.0294,0.0299,0.0295,0.0295,0.0293,0.0297,0.0296,0.03,0.0293,0.0293,0.0299,0.0292,0.0292,0.0296,0.0308,0.0292,0.0292,0.0298,0.0298,0.0299,0.0331,0,0,0,0,0,0,0.0293,0.0294,0.0302,0.0295,0.0295,0.0303,0.0297,0.0296,0.0299,0.0299,0.0298,0.0297,0.0292,0.0296,0.0296,0.0308,0.0292,0.0298,0.0298,0.0299,0.033,0.0332,0.0335,0,0,0,0,0,0.0292,0.0305,0.0303,0.0304,0.0305,0.0303,0.0303,0.03,0.03,0.0303,0.0301,0.0298,0.0298,0.0296,0.0296,0.0308,0.0298,0.0298,0.0299,0.0328,0.0332,0.0335,0,0,0,0,0,0,0.0307,0.0305,0.0303,0.0316,0.0311,0.0303,0.031,0.0305,0.0306,0.031,0.0301,0.03,0.0308,0.0302,0.0299,0.031,0.0297,0.0298,0.032,0.0323,0.0326,0.0335,0.0291,0,0,0,0,0,0.0313,0.032,0.0314,0.0324,0.0326,0.0318,0.0319,0.0316,0.0314,0.0315,0.0311,0.0309,0.0308,0.0311,0.0308,0.0316,0.0295,0.0323,0.0325,0.0327,0.0334,0.0308,0.0309,0.0301,0.0301,0.0301,0,0,0.0321,0.0321,0.0325,0.0327,0.0326,0.0334,0.0319,0.0325,0.0333,0.0315,0.0327,0.0317,0.0311,0.0319,0.0322,0.0317,0.0317,0.0328,0.033,0.0336,0.0309,0.031,0.0311,0.0301,0.0301,0.0301,0,0,0.0338,0.0342,0.0353,0.0354,0.0355,0.0351,0.0354,0.0349,0.0351,0.0356,0.0346,0.0342,0.0343,0.0339,0.0337,0.0351,0.0329,0.0352,0.0378,0.0352,0.0353,0.0353,0.0319,0.0316,0.0356,0.0356,0.0356,0,0.0347,0.0363,0.0356,0.0368,0.0373,0.0361,0.0375,0.0376,0.0371,0.0372,0.0367,0.0362,0.0353,0.0362,0.0366,0.0358,0.0337,0.0368,0.0356,0.0355,0.0355,0.032,0.0316,0.0358,0.0358,0.0358,0.0358,0,0.0371,0.0387,0.0396,0.0406,0.0409,0.0421,0.0418,0.0423,0.042,0.0414,0.0418,0.0404,0.0401,0.0396,0.0388,0.0386,0.0369,0.0359,0.0349,0.0358,0.032,0.0316,0.036,0.036,0.0359,0.0359,0,0,0.0384,0.0407,0.0413,0.0424,0.0433,0.0437,0.0453,0.0458,0.0466,0.0461,0.0466,0.0462,0.0449,0.0447,0.0432,0.0413,0.0386,0.0391,0.0389,0.0359,0.0323,0.0274,0.0264,0.0374,0.0374,0.0374,0.0294,0,0.0406,0.0437,0.0442,0.0471,0.0487,0.0485,0.0499,0.0501,0.0496,0.0496,0.0484,0.0483,0.0471,0.0469,0.045,0.0399,0.0377,0.0408,0.0317,0.0314,0.0272,0.0259,0.0373,0.029,0.0289,0.0289,0.0288,0,0.0426,0.0447,0.0482,0.0504,0.0512,0.0529,0.0544,0.0556,0.0553,0.0547,0.0544,0.0524,0.0505,0.0489,0.0419,0.044,0.039,0.0348,0.0344,0.0287,0.0258,0.0281,0.0279,0.028,0.0281,0.0281,0.0282,0,0.0434,0.0471,0.05,0.051,0.0536,0.0555,0.0572,0.0576,0.0587,0.0582,0.0577,0.0551,0.0536,0.0477,0.0396,0.0405,0.0304,0.0302,0.0214,0.0209,0.0264,0.0264,0.0254,0.0254,0.0254,0.0255,0.0255,0,0.045,0.0474,0.0512,0.0532,0.0568,0.058,0.0612,0.062,0.0629,0.0638,0.0612,0.0597,0.0533,0.0467,0.0396,0.0283,0.0302,0.0213,0.0185,0.0277,0.028,0.0259,0.0261,0.0252,0.0252,0.0253,0.0253,0,0.0451,0.0476,0.0511,0.0555,0.0575,0.0603,0.0647,0.0665,0.067,0.068,0.068,0.0629,0.0536,0.0453,0.034,0.0277,0.0175,0.0133,0.0228,0.0207,0.0097,0.0102,0.0025,0.0022,0.002,0.0018,0.0017,0,0.0453,0.0473,0.053,0.0557,0.0584,0.063,0.0663,0.0689,0.0705,0.069,0.0691,0.0613,0.0564,0.0366,0.0277,0.0124,0.011,0.0056,0.009,0.0093,0.0074,0.0081,0.0088,0.0014,0.0013,0.0013,0.0012,0,0.0456,0.0476,0.0506,0.0564,0.0609,0.065,0.0699,0.071,0.0732,0.0739,0.068,0.0583,0.0473,0.0341,0.022,0.0116,0.0088,0.0035,0.0039,0.0071,0.0079,0.0064,0.0073,0.0005,0.0006,0.0007,0.0007,0,0.0454,0.0469,0.0511,0.0559,0.0613,0.0652,0.0679,0.0694,0.0709,0.0702,0.0676,0.0565,0.0514,0.0334,0.022,0.0109,0.0089,0.0063,0.0065,0.0072,0.011,0.0129,0.0042,0,0,0,0,0,0.0444,0.0462,0.0504,0.0549,0.0601,0.0636,0.0693,0.0714,0.0738,0.0699,0.0689,0.0582,0.0401,0.0324,0.0204,0.018,0.0069,0.0035,0.004,-0.0034,-0.0026,0.0007,0,0,0,0,0,0,0.0436,0.0471,0.0493,0.0534,0.0563,0.0617,0.0655,0.0674,0.0652,0.0661,0.0567,0.0539,0.0366,0.0465,0.0195,0.0162,0.0146,-0.0039,-0.0042,-0.0038,-0.0031,-0.0024,0.0012,0,0,0,0,0]}]]